Погода в Ургенче

Погода в Ургенче : погода сейчас, прогноз погоды и архив. Всё, что Вы хотите узнать о погоде в Ургенче!

Поиск расширенной информации на нашем сайте:

Другие новости

Новости СМИ2

Главная страница сайта

Новости сайта

02.10.2013

Напоминаем, что на нашем новом сайте вы можете получить высокодетализированные прогнозы погоды по пунктам России, СНГ и мира (включающие важные для авиации метеовеличины, такие как направление и скорость ветра, видимость, явления погоды, количество и форма облачности, нижняя и верхняя граница облачности), а также ознакомиться с разнообразными материалами по авиационной метеорологии и подборкой полезных ссылок на эту тему.

Сайт Метеоцентр.Азия посвящён разработке технологий оптимизации авиаметеорологического обслуживания, включая проектирование и перспективное создание нескольких автоматизированных авиаметеорологических систем:
- система выпуска высокодетальных прогностических карт явлений погоды для нижнего воздушного пространства по России и ближнему зарубежью;
- система верификации прогнозов TAF (выпускаемых синоптиками официальных АМСГ РФ и ближнего зарубежья) и AUTOTAF (выпускаемых сайтом Метеоцентр.Азия) - выявление ошибок, онлайн-сопоставление с фактической погодой METAR, автоматическое внесение коррективов в прогнозы при резком отклонении фактической погоды от прогноза, подсчёт оправдываемости прогнозов по элементам и в целом;
- система обработки, анализа и отображения авиаметеорологической информации для применения провайдерами метеорологической информации.

Рекомендуем: туроператоры по абхазии

Погода в Ургенче - сегодня

Время (UTC), дата Ветер
(°,м/с) 
Видим.   Явления Облачность Т
(°С)
Тd
(°С)
f(%) Тe
(°С)
Pmin
(гПа)
dP
(гПа)
Po
(мм)
O2
(г/м3)
Тmin Tmax R s Состояние
почвы
09 25.05.17 060 (СВ) 10 км    5/0 верхняя 
[Ci fib]
+34.3 +11 24 +37  1010.3  -0.8  749  266           
12 25.05.17 060 (СВ) 10 км    3/3 2000 м верхняя 
[Cu hum|Ci fib]
+35.5 +9.8 21 +36  1008.9  -1.4  748  265           
15 25.05.17 080 (В) 10 км    8/3 2000 м кучево-дожд., средняя 
[Cb calv|Ac trans]
+30 +16.4 44 +41  1008.5  -0.5  748  268    +35.8       
18 25.05.17 120 (ЮВ) 10 км  в посл. час гроза{ливн. осадки}  9/3 2000 м кучево-дожд., средняя 
[Cb calv|Ac As]
+26.2 +13.3 45 +32  1009.1  0.4  748  273    +35.8       
21 25.05.17 040 (СВ) 10 км  в посл. час гроза{ливн. осадки}  9/4 1500 м кучево-дожд., средняя 
[Cb calv|Ac As]
+23.8 +13.7 53 +30  1009.8  0.6  749  275           
00 26.05.17 240 (ЮЗ) 10 км  {гроза, ливн. осадки}  6/3 2000 м кучево-дожд., средняя 
[Cb calv|Ac trans]
+22.6 +12.8 54 +28  1010.8  0.9  749  276           
06 26.05.17 260 (З) 10 км    ясно 
+27.6 +14.3 44 +35  1012.3  0.4  751  272  +21.8       
09 26.05.17 260 (З) 10 км    8/0 верхняя 
[Ci fib]
+30.8 +11.3 30 +34  1012.1  -0.1  751  270           
12 26.05.17 290 (З) 10 км    10/0 верхняя 
[Ci fib]
+32 +7.7 22 +32  1010.9  -1.1  750  269           
15 26.05.17 270 (З) 10 км    6/0 средняя, верхняя 
[Ac trans|Ci fib]
+29.3 +9 28 +29  1010.9  -0.1  750  271    +32.6       
18 26.05.17 280 (З) 10 км    6/0 средняя, верхняя 
[Ac trans|Ci fib]
+25.2 +8 33 +25  1011.9  0.8  750  275    +32.6       
21 26.05.17 300 (СЗ) 10 км    4/0 верхняя 
[Ci fib]
+20.1 +17.7 86 +34  1011.5  -0.6  750  277           
06 27.05.17 060 (СВ) 10 км    ясно 
+29 +9.8 30 +30  1012.3  -0.2  751  272  +16.7         
09 27.05.17 110 (В) 10 км    ясно 
+31.6 +7.3 22 +32  1011.7  -0.5  750  270           
12 27.05.17 130 (ЮВ) 10 км    ясно 
+33.2 +5.6 18 +33  1010.2  -1.4  749  268           
15 27.05.17 340 (С) 10 км    ясно 
+28.3 +11 34 +31  1010.4  749  272    +33.8       
18 27.05.17 100 (В) 4000 м    6/3 2000 м кучево-дожд., средняя 
[Cb calv|Ac As]
+23.8 +14.3 55 +31  1009.4  -1.1  748  274    +33.8       
21 27.05.17 060 (СВ) 4000 м    5/0 верхняя 
[Ci fib]
+21.5 +14.1 63 +29  1008.6  -0.8  748  276           
06 28.05.17 140 (ЮВ) 10 км    4/0 верхняя 
[Ci fib]
+30.6 +11.5 31 +34  1008.2  -0.4  748  269  +18.8         
09 28.05.17 180 (Ю) 10 км    3/0 верхняя 
[Ci fib]
+36.3 +5.8 15 +36  1006.5  -1.5  747  265           
12 28.05.17 080 (В) 10 км    ясно 
+36.1 +8 18 +36  1004.1  -4  745  264           
15 28.05.17 120 (ЮВ) 10 км    3/0 средняя 
[Ac trans]
+31.3 +11.7 30 +35  1002.7  -1.6  744  267    +37.6       
18 28.05.17 270 (З) 4000 м    ясно 
+28.8 +10.5 32 +31  1004.2  1.4  745  270    +37.6       
21 28.05.17 280 (З) 10 км    ясно 
+25.4 +10.9 40 +28  1005  0.6  745  273           
00 29.05.17 300 (СЗ) 10 км    ясно 
+19.8 +11.3 58 +23  1006.9  1.8  746  278           
Время (UTC), дата Ветер
(°,м/с) 
Видим.   Явления Облачность Т
(°С)
Тd
(°С)
f(%) Тe
(°С)
Pmin
(гПа)
dP
(гПа)
Po
(мм)
O2
(г/м3)
Тmin Tmax R s Состояние
почвы

Для получения пояснительной информации подведите курсор к названию столбца.

ПОГОДА в Ургенче - архив

Всё, что Вы хотите узнать о погоде в Ургенче - удобно и подробно!

Выберите нужную дату (начиная с 1 января 2015* года) и нажмите кнопку "Найти".
Будут отображены архивные сводки погоды по пункту Ургенч, начиная с указанной даты.


Отображать данные в формате CSV (для использования в таблицах Excel)


Внимание! Наш архив погоды предназначен исключительно для личного некоммерческого использования в познавательных целях. Если Вам необходимы официальные справки о состоянии погоды (для производственных, юридических, коммерческих и т.п. целей), обращайтесь в органы Росгидромета.

*Примечание: данная дата относится к архиву по метеостанциям СССР (Россия, СНГ, Балтия).
Архив по метеостанциям Зарубежной Европы и Азии (кроме Китая) хранится 10 дней, по другим регионам земного шара (Китай, Африка, Америка, Австралия, Океания) - 1 день.

Ургенч - район местоположения метеостанции


Название, широта, долгота, высота метеостанции:
Ургенч 41.6°ш. 60.6°д. 101 м над ур. моря [Узбекистан]

Дополнительная информация

В oтличие oт бoльшинства пoгoдных сайтoв мы публикуем пoдрoбную метеoинфoрмацию в детальнoм прoфессиoнальнoм фoрмате.

Характеристики температуры и влажнoсти вoздуха измеряются на высoте 2 м в тени вдали oт зданий и деревьев.
Скoрoсть ветра измеряется на высoте 10 м (на урoвне рoста челoвека скoрoсть ветра ниже в 1.5-2 раза). Если метеoстанция нахoдится в гoрoде или в лесу, тo скoрoсть ветра занижена на 2-4 м/с пo сравнению с oткрытым местoм. Скoрoсть ветра над акватoриями крупных рек и oзёр, а также на вершинах хoлмoв на 2-5 м/с выше, чем в oбычных услoвиях.
Атмoсфернoе давление в разных тoчках местнoсти мoжет значительнo oтличаться oт давления на метеoстанции, в зависимoсти oт услoвий рельефа (при пoдъёме на 10 м давление пoнижается примернo на 1 мм рт.ст.).